| time (UTC) | temp C | wind direction | speed KPH | gust KPH | rain 1hr cm | rain 24hr cm | rain mn cm | humidity % | barometer mb |
| 20260505124735 | 25 | 0.0 | 0.0 | 0.00 | 0.00 | 0.00 | 37 | 1010.4 | |
| 20260505123704 | 25 | 0.0 | 0.0 | 0.00 | 0.00 | 0.00 | 36 | 1010.4 | |
| 20260505123204 | 25 | 0.0 | 0.0 | 0.00 | 0.00 | 0.00 | 36 | 1010.4 | |
| 20260505122132 | 25 | 0.0 | 0.0 | 0.00 | 0.00 | 0.00 | 36 | 1010.4 | |
| 20260505121101 | 26 | 0.0 | 0.0 | 0.00 | 0.00 | 0.00 | 35 | 1010.8 | |
| 20260505120029 | 26 | 0.0 | 0.0 | 0.00 | 0.00 | 0.00 | 36 | 1011.0 | |
| 20260505114426 | 26 | 0.0 | 0.0 | 0.00 | 0.00 | 0.00 | 34 | 1011.0 | |
| 20260505113355 | 26 | 0.0 | 0.0 | 0.00 | 0.00 | 0.00 | 35 | 1011.0 | |
| 20260505112323 | 26 | 0.0 | 0.0 | 0.00 | 0.00 | 0.00 | 36 | 1011.0 | |
| 20260505111823 | 26 | 0.0 | 0.0 | 0.00 | 0.00 | 0.00 | 37 | 1011.1 | |
| 20260505110220 | 27 | 0.0 | 0.0 | 0.00 | 0.00 | 0.00 | 35 | 1011.2 | |
| 20260505101944 | 26 | 0.0 | 0.0 | 0.00 | 0.00 | 0.00 | 43 | 1011.5 | |
| 20260505095238 | 26 | 0.0 | 0.0 | 0.00 | 0.00 | 0.00 | 43 | 1011.5 | |
| 20260505093105 | 25 | 0.0 | 0.0 | 0.00 | 0.00 | 0.00 | 45 | 1011.6 | |
| 20260505092604 | 25 | 0.0 | 0.0 | 0.00 | 0.00 | 0.00 | 46 | 1011.6 | |
| 20260505091533 | 25 | 0.0 | 0.0 | 0.00 | 0.00 | 0.00 | 47 | 1011.6 | |
| 20260505091033 | 24 | 0.0 | 0.0 | 0.00 | 0.00 | 0.00 | 46 | 1011.6 | |
| 20260505090532 | 24 | 0.0 | 0.0 | 0.00 | 0.00 | 0.00 | 46 | 1011.6 | |
| 20260505090032 | 24 | 0.0 | 0.0 | 0.00 | 0.00 | 0.00 | 47 | 1011.6 | |
| 20260505083858 | 23 | 0.0 | 0.0 | 0.00 | 0.00 | 0.00 | 48 | 1011.6 | |
| 20260505082826 | 23 | 0.0 | 0.0 | 0.00 | 0.00 | 0.00 | 49 | 1011.6 | |
| 20260505082326 | 23 | 0.0 | 0.0 | 0.00 | 0.00 | 0.00 | 51 | 1011.9 | |
| 20260505081826 | 22 | 0.0 | 0.0 | 0.00 | 0.00 | 0.00 | 51 | 1011.9 | |
| 20260505081325 | 22 | 0.0 | 0.0 | 0.00 | 0.00 | 0.00 | 52 | 1011.9 | |
| 20260505080825 | 22 | 0.0 | 0.0 | 0.00 | 0.00 | 0.00 | 53 | 1011.7 | |
| 20260505075754 | 22 | 0.0 | 0.0 | 0.00 | 0.00 | 0.00 | 53 | 1011.9 | |
| 20260505075253 | 22 | 0.0 | 0.0 | 0.00 | 0.00 | 0.00 | 53 | 1011.9 | |
| 20260505074222 | 21 | 0.0 | 0.0 | 0.00 | 0.00 | 0.00 | 55 | 1011.9 | |
| 20260505073150 | 21 | 0.0 | 0.0 | 0.00 | 0.00 | 0.00 | 55 | 1011.9 | |
| 20260505072650 | 20 | 0.0 | 0.0 | 0.00 | 0.00 | 0.00 | 56 | 1011.9 | |
| 20260505072149 | 20 | 0.0 | 0.0 | 0.00 | 0.00 | 0.00 | 57 | 1011.9 | |
| 20260505071649 | 20 | 0.0 | 0.0 | 0.00 | 0.00 | 0.00 | 58 | 1011.9 | |
| 20260505071149 | 20 | 0.0 | 0.0 | 0.00 | 0.00 | 0.00 | 58 | 1011.9 | |
| 20260505070649 | 20 | 0.0 | 0.0 | 0.00 | 0.00 | 0.00 | 58 | 1011.9 | |
| 20260505070148 | 20 | 0.0 | 0.0 | 0.00 | 0.00 | 0.00 | 60 | 1011.9 | |
| 20260505065117 | 19 | 0.0 | 0.0 | 0.00 | 0.00 | 0.00 | 61 | 1011.9 | |
| 20260505064617 | 18 | 0.0 | 0.0 | 0.00 | 0.00 | 0.00 | 61 | 1011.9 | |
| 20260505064116 | 18 | 0.0 | 0.0 | 0.00 | 0.00 | 0.00 | 61 | 1011.9 | |
| 20260505055737 | 16 | 0.0 | 0.0 | 0.00 | 0.00 | 0.00 | 66 | 1011.9 | |
| 20260505055237 | 16 | 0.0 | 0.0 | 0.00 | 0.00 | 0.00 | 66 | 1011.6 | |
| 20260505054206 | 15 | 0.0 | 0.0 | 0.00 | 0.00 | 0.00 | 67 | 1011.6 | |
| 20260505053705 | 15 | 0.0 | 0.0 | 0.00 | 0.00 | 0.00 | 67 | 1011.6 | |
| 20260505052634 | 14 | 0.0 | 0.0 | 0.00 | 0.00 | 0.00 | 67 | 1011.6 | |
| 20260505051031 | 14 | 0.0 | 0.0 | 0.00 | 0.00 | 0.00 | 66 | 1011.6 | |
| 20260505040019 | 14 | 0.0 | 0.0 | 0.00 | 0.00 | 0.00 | 64 | 1011.8 | |
| 20260505032743 | 15 | 0.0 | 0.0 | 0.00 | 0.00 | 0.00 | 63 | 1011.7 | |
| 20260505032243 | 15 | 0.0 | 0.0 | 0.00 | 0.00 | 0.00 | 62 | 1011.9 | |
| 20260505031742 | 15 | 0.0 | 0.0 | 0.00 | 0.00 | 0.00 | 62 | 1011.9 | |
| 20260505030711 | 15 | 0.0 | 0.0 | 0.00 | 0.00 | 0.00 | 62 | 1011.9 | |
| 20260505024537 | 15 | 0.0 | 0.0 | 0.00 | 0.00 | 0.00 | 61 | 1012.2 | |
| 20260505024037 | 15 | 0.0 | 0.0 | 0.00 | 0.00 | 0.00 | 61 | 1012.2 | |
| 20260505023536 | 15 | 0.0 | 0.0 | 0.00 | 0.00 | 0.00 | 61 | 1012.2 | |
| 20260505023036 | 15 | 0.0 | 0.0 | 0.00 | 0.00 | 0.00 | 60 | 1012.2 | |
| 20260505022536 | 15 | 0.0 | 0.0 | 0.00 | 0.00 | 0.00 | 60 | 1012.2 | |
| 20260505022035 | 15 | 0.0 | 0.0 | 0.00 | 0.00 | 0.00 | 60 | 1012.2 | |
| 20260505021535 | 16 | 0.0 | 0.0 | 0.00 | 0.00 | 0.00 | 60 | 1012.2 | |
| 20260505015933 | 16 | 0.0 | 0.0 | 0.00 | 0.00 | 0.00 | 59 | 1012.1 | |
| 20260505015432 | 16 | 0.0 | 0.0 | 0.00 | 0.00 | 0.00 | 59 | 1012.1 | |
| 20260505014401 | 16 | 0.0 | 0.0 | 0.00 | 0.00 | 0.00 | 59 | 1012.2 | |
| 20260505013901 | 16 | 0.0 | 0.0 | 0.00 | 0.00 | 0.00 | 58 | 1012.2 | |
| 20260505013400 | 16 | 0.0 | 0.0 | 0.00 | 0.00 | 0.00 | 58 | 1012.2 | |
| 20260505012900 | 16 | 0.0 | 0.0 | 0.00 | 0.00 | 0.00 | 58 | 1012.2 | |
| 20260505011828 | 16 | 0.0 | 0.0 | 0.00 | 0.00 | 0.00 | 57 | 1012.3 | |
| 20260505011328 | 16 | 0.0 | 0.0 | 0.00 | 0.00 | 0.00 | 57 | 1012.3 | |
| 20260505010257 | 16 | 0.0 | 0.0 | 0.00 | 0.00 | 0.00 | 56 | 1012.7 | |
| 20260505005756 | 16 | 0.0 | 0.0 | 0.00 | 0.00 | 0.00 | 56 | 1012.7 | |
| 20260505004725 | 16 | 0.0 | 0.0 | 0.00 | 0.00 | 0.00 | 56 | 1012.7 | |
| 20260505000346 | 17 | 0.0 | 0.0 | 0.00 | 0.00 | 0.00 | 54 | 1013.2 | |
| 20260504234744 | 17 | 0.0 | 0.0 | 0.00 | 0.00 | 0.00 | 54 | 1013.4 | |
| 20260504234243 | 17 | 0.0 | 0.0 | 0.00 | 0.00 | 0.00 | 54 | 1013.4 | |
| 20260504233743 | 17 | 0.0 | 0.0 | 0.00 | 0.00 | 0.00 | 53 | 1013.4 | |
| 20260504232712 | 17 | 0.0 | 0.0 | 0.00 | 0.00 | 0.00 | 53 | 1013.7 | |
| 20260504231640 | 17 | 0.0 | 0.0 | 0.00 | 0.00 | 0.00 | 53 | 1013.7 | |
| 20260504230609 | 17 | 0.0 | 0.0 | 0.00 | 0.00 | 0.00 | 53 | 1013.8 | |
| 20260504230108 | 17 | 0.0 | 0.0 | 0.00 | 0.00 | 0.00 | 52 | 1013.8 | |
| 20260504225608 | 17 | 0.0 | 0.0 | 0.00 | 0.00 | 0.00 | 52 | 1013.8 | |
| 20260504225108 | 17 | 0.0 | 0.0 | 0.00 | 0.00 | 0.00 | 51 | 1013.8 | |
| 20260504224607 | 17 | 0.0 | 0.0 | 0.00 | 0.00 | 0.00 | 51 | 1013.8 | |
| 20260504224107 | 17 | 0.0 | 0.0 | 0.00 | 0.00 | 0.00 | 51 | 1013.8 | |
| 20260504221933 | 18 | 0.0 | 0.0 | 0.00 | 0.00 | 0.00 | 50 | 1013.6 | |
| 20260504221433 | 18 | 0.0 | 0.0 | 0.00 | 0.00 | 0.00 | 49 | 1013.6 | |
| 20260504215831 | 18 | 0.0 | 0.0 | 0.00 | 0.00 | 0.00 | 49 | 1013.8 | |
| 20260504214228 | 18 | 0.0 | 0.0 | 0.00 | 0.00 | 0.00 | 48 | 1013.8 | |
| 20260504213728 | 18 | 0.0 | 0.0 | 0.00 | 0.00 | 0.00 | 48 | 1013.8 | |
| 20260504212656 | 19 | 0.0 | 0.0 | 0.00 | 0.00 | 0.00 | 47 | 1013.7 | |
| 20260504212156 | 19 | 0.0 | 0.0 | 0.00 | 0.00 | 0.00 | 47 | 1013.7 | |
| 20260504211124 | 19 | 0.0 | 0.0 | 0.00 | 0.00 | 0.00 | 46 | 1013.8 | |
| 20260504210624 | 20 | 0.0 | 0.0 | 0.00 | 0.00 | 0.00 | 46 | 1013.8 | |
| 20260504205552 | 20 | 0.0 | 0.0 | 0.00 | 0.00 | 0.00 | 45 | 1013.8 | |
| 20260504203950 | 20 | 0.0 | 0.0 | 0.00 | 0.00 | 0.00 | 45 | 1013.9 | |
| 20260504203450 | 20 | 0.0 | 0.0 | 0.00 | 0.00 | 0.00 | 45 | 1013.9 | |
| 20260504202949 | 20 | 0.0 | 0.0 | 0.00 | 0.00 | 0.00 | 45 | 1013.9 | |
| 20260504202449 | 20 | 0.0 | 0.0 | 0.00 | 0.00 | 0.00 | 45 | 1013.8 | |
| 20260504201418 | 20 | 0.0 | 0.0 | 0.00 | 0.00 | 0.00 | 45 | 1013.8 | |
| 20260504200917 | 20 | 0.0 | 0.0 | 0.00 | 0.00 | 0.00 | 45 | 1013.8 | |
| 20260504195846 | 20 | 0.0 | 0.0 | 0.00 | 0.00 | 0.00 | 44 | 1014.1 | |
| 20260504195345 | 20 | 0.0 | 0.0 | 0.00 | 0.00 | 0.00 | 44 | 1014.1 | |
| 20260504194845 | 20 | 0.0 | 0.0 | 0.00 | 0.00 | 0.00 | 44 | 1014.0 | |
| 20260504193813 | 21 | 0.0 | 0.0 | 0.00 | 0.00 | 0.00 | 44 | 1014.1 | |
| 20260504193313 | 21 | 0.0 | 0.0 | 0.00 | 0.00 | 0.00 | 44 | 1014.1 | |
| 20260504191710 | 21 | 0.0 | 0.0 | 0.00 | 0.00 | 0.00 | 43 | 1014.0 | |
| 20260504191210 | 21 | 0.0 | 0.0 | 0.00 | 0.00 | 0.00 | 43 | 1013.9 | |
| 20260504185037 | 21 | 0.0 | 0.0 | 0.00 | 0.00 | 0.00 | 43 | 1013.8 | |
| 20260504183434 | 21 | 0.0 | 0.0 | 0.00 | 0.00 | 0.00 | 42 | 1013.8 | |
| 20260504182934 | 21 | 0.0 | 0.0 | 0.00 | 0.00 | 0.00 | 42 | 1013.9 | |
| 20260504181331 | 22 | 0.0 | 0.0 | 0.00 | 0.00 | 0.00 | 42 | 1014.1 | |
| 20260504175728 | 22 | 0.0 | 0.0 | 0.00 | 0.00 | 0.00 | 41 | 1014.2 | |
| 20260504175228 | 22 | 0.0 | 0.0 | 0.00 | 0.00 | 0.00 | 40 | 1014.2 | |
| 20260504174728 | 22 | 0.0 | 0.0 | 0.00 | 0.00 | 0.00 | 40 | 1014.2 | |
| 20260504174227 | 22 | 0.0 | 0.0 | 0.00 | 0.00 | 0.00 | 40 | 1014.2 | |
| 20260504173156 | 22 | 0.0 | 0.0 | 0.00 | 0.00 | 0.00 | 40 | 1014.3 | |
| 20260504172655 | 22 | 0.0 | 0.0 | 0.00 | 0.00 | 0.00 | 40 | 1014.3 | |
| 20260504172155 | 22 | 0.0 | 0.0 | 0.00 | 0.00 | 0.00 | 40 | 1014.3 | |
| 20260504171655 | 23 | 0.0 | 0.0 | 0.00 | 0.00 | 0.00 | 40 | 1014.5 | |
| 20260504160142 | 23 | 0.0 | 0.0 | 0.00 | 0.00 | 0.00 | 38 | 1014.7 | |
| 20260504150231 | 23 | 0.0 | 0.0 | 0.00 | 0.00 | 0.00 | 37 | 1015.3 |